Location: Unspecified
(0.0000°N, 0.0000°E)
Time: 05:18:06
(UTC+00:00)

ISS - Visible Passes

Search period start: 22 August 2018 00:00
Search period end: 01 September 2018 00:00
Orbit: 401 x 409 km, 51.6° (Epoch: 22 August)

Date Brightness Start Highest point End Pass type
(mag) Time Alt. Az. Time Alt. Az. Time Alt. Az.
22 Aug -0.8 04:19:02 11° SE 04:19:50 12° SE 04:21:07 10° ESE visible
23 Aug -3.8 05:02:51 29° WSW 05:04:14 57° NW 05:07:26 10° NNE visible
24 Aug -1.5 04:13:53 24° ENE 04:13:53 24° ENE 04:15:26 10° NE visible
25 Aug -1.5 04:57:34 13° NW 04:57:34 13° NW 04:58:30 10° NNW visible
